This is the latest recevied weather packets stored in our database for station/object W0JRT-6. If no packets are shown the sender has not sent any weather packets the latest 10 day(s).
| Time | Temp. | Humidity | Pressure | Rain* | Wind** | Luminosity | Snow |
|---|---|---|---|---|---|---|---|
| 1777661403 | 17.22° C | 39% | 1013.4 hPa | 0 mm | - | - | - |
| 1777660797 | 16.67° C | 37% | 1013.4 hPa | 0 mm | - | - | - |
| 1777660204 | 17.22° C | 39% | 1013.6 hPa | 0 mm | - | - | - |
| 1777659006 | 17.78° C | 36% | 1013.6 hPa | 0 mm | - | - | - |
| 1777658412 | 17.22° C | 39% | 1013.7 hPa | 0 mm | - | - | - |
| 1777657800 | 17.22° C | 37% | 1013.9 hPa | 0 mm | - | - | - |
| 1777657209 | 17.22° C | 37% | 1014 hPa | 0 mm | - | - | - |
| 1777656612 | 16.67° C | 36% | 1014 hPa | 0 mm | - | - | - |
| 1777656012 | 16.67° C | 33% | 1014.2 hPa | 0 mm | - | - | - |
| 1777655405 | 16.67° C | 39% | 1014.2 hPa | 0 mm | - | - | - |
| 1777654798 | 16.67° C | 37% | 1014.2 hPa | 0 mm | - | - | - |
| 1777654204 | 16.11° C | 37% | 1014.4 hPa | 0 mm | - | - | - |
| 1777653598 | 16.11° C | 38% | 1014.4 hPa | 0 mm | - | - | - |
| 1777652407 | 16.11° C | 39% | 1014.3 hPa | 0 mm | - | - | - |
| 1777651802 | 15.56° C | 44% | 1014.4 hPa | 0 mm | - | - | - |
| 1777651199 | 15.56° C | 39% | 1014.4 hPa | 0 mm | - | - | - |
| 1777650606 | 15° C | 44% | 1014.4 hPa | 0 mm | - | - | - |
| 1777650005 | 15° C | 40% | 1014.4 hPa | 0 mm | - | - | - |
| 1777648804 | 14.44° C | 50% | 1014.7 hPa | 0 mm | - | - | - |
| 1777648211 | 14.44° C | 51% | 1014.8 hPa | 0 mm | - | - | - |
| 1777647601 | 13.89° C | 46% | 1014.8 hPa | 0 mm | - | - | - |
| 1777647000 | 13.89° C | 49% | 1014.8 hPa | 0 mm | - | - | - |
| 1777645807 | 13.33° C | 53% | 1015.2 hPa | 0 mm | - | - | - |
| 1777645210 | 12.78° C | 54% | 1015.4 hPa | 0 mm | - | - | - |
| 1777644608 | 12.78° C | 57% | 1015.5 hPa | 0 mm | - | - | - |
* Rain since midnight (hover to see other rain measurements)
** Current wind speed in m/s (hover to see current wind gust speed)